Location: Pedholt
(56.0260°N, 10.2097°E)
Time: 07:19:47
(UTC+00:00)

SR - Pass Details

Date: 31 July 2021
Orbit: 581 x 874 km, 66.7° (Epoch: 24 September)

Event Time Altitude Azimuth Distance (km) Brightness Sun altitude
Rises 13:11:10 0° 315° (NW) 3,214 ? 47.2°
Reaches altitude 10° 13:13:40 10° 316° (NW) 2,238 ? 47.0°
Maximum altitude 13:18:45 81° 44° (NE) 698 ? 46.5°
Drops below altitude 10° 13:23:23 10° 133° (SE) 2,041 ? 46.1°
Sets 13:25:34 0° 134° (SE) 2,910 ? 45.9°
